New Castle, PA

6:19 AM EST on December 11, 2019 (GMT -0500)
New Castle Municipal

Weather History for KUCP - November, 2019

Change the Weather History Date:

Saturday, November 16, 2019

  Actual Average Record
Temperature  
Mean Temperature 34 °F -  
Max Temperature 41 °F 50 °F 77 °F (1927)
Min Temperature 28 °F 30 °F 6 °F (1933)
Degree Days  
Heating Degree Days 30    
Moisture  
Dew Point 18 °F    
Average Humidity 58    
Maximum Humidity 92    
Minimum Humidity 33    
Precipitation  
Precipitation 0.00 in - - ()
Sea Level Pressure  
Sea Level Pressure 30.42 in    
Wind  
Wind Speed 4 mph (ENE)    
Max Wind Speed 10 mph    
Max Gust Speed -    
Visibility 10 miles    
Events      
Averages and records for this station are not official NWS values.
T = Trace of Precipitation, MM = Missing Value Source: NWS Daily Summary

Daily Weather History Graph

Daily Weather History Graph

Search for Another Location

Airport or City:

Astronomy

Nov. 16, 2019 Rise Set
Actual Time 7:10 AM EST 5:02 PM EST
Civil Twilight 6:40 AM EST 5:31 PM EST
Nautical Twilight 6:07 AM EST 6:05 PM EST
Astronomical Twilight 5:34 AM EST 6:37 PM EST
Moon 8:32 PM EST (11/16) 11:03 AM EST (11/16)
Length of Visible Light 10h 51m
Length of Day
9h 52m
Waning Gibbous, 82% of the Moon is Illuminated
Nov 16
Waning Gibbous
Nov 19
Last Quarter
Nov 26
New
Dec 4
First Quarter
Dec 12
Full

Hourly Weather History & Observations

Time (EST) Temp. Windchill Dew Point Humidity Pressure Visibility Wind Dir Wind Speed Gust Speed Precip Events Conditions
12:56 AM 32.0 °F - 28.9 °F 88% 30.44 in 9.0 mi Calm Calm - N/A   Overcast
1:56 AM 32.0 °F - 28.9 °F 88% 30.44 in 8.0 mi Calm Calm - N/A   Overcast
2:56 AM 30.0 °F 26.5 °F 28.0 °F 92% 30.43 in 8.0 mi North 3.5 mph - N/A   Mostly Cloudy
3:56 AM 28.0 °F 24.2 °F 25.0 °F 88% 30.43 in 9.0 mi NNE 3.5 mph - N/A   Clear
4:56 AM 28.0 °F 22.8 °F 26.1 °F 92% 30.44 in 8.0 mi North 4.6 mph - N/A   Clear
5:56 AM 28.0 °F 22.8 °F 26.1 °F 92% 30.45 in 10.0 mi NNE 4.6 mph - N/A   Overcast
7:56 AM 28.0 °F 20.8 °F 24.1 °F 85% 30.50 in 10.0 mi NE 6.9 mph - N/A   Partly Cloudy
8:56 AM 30.9 °F 22.8 °F 23.0 °F 72% 30.51 in 10.0 mi NE 9.2 mph - N/A   Clear
9:56 AM 35.1 °F 30.1 °F 21.9 °F 59% 30.50 in 10.0 mi Variable 5.8 mph - N/A   Clear
10:56 AM 35.1 °F 28.6 °F 21.9 °F 59% 30.49 in 10.0 mi ENE 8.1 mph - N/A   Clear
11:56 AM 37.0 °F 31.0 °F 19.9 °F 50% 30.45 in 10.0 mi East 8.1 mph - N/A   Clear
12:56 PM 39.0 °F 33.4 °F 19.9 °F 46% 30.42 in 10.0 mi East 8.1 mph - N/A   Clear
1:56 PM 41.0 °F 35.2 °F 18.0 °F 40% 30.40 in 10.0 mi ENE 9.2 mph - N/A   Clear
2:56 PM 41.0 °F 34.7 °F 17.1 °F 38% 30.39 in 10.0 mi East 10.4 mph - N/A   Clear
3:56 PM 41.0 °F 36.4 °F 15.1 °F 35% 30.39 in 10.0 mi ENE 6.9 mph - N/A   Clear
4:56 PM 37.9 °F 34.4 °F 10.9 °F 33% 30.40 in 10.0 mi East 4.6 mph - N/A   Clear
5:56 PM 36.0 °F 32.1 °F 9.0 °F 33% 30.40 in 10.0 mi East 4.6 mph - N/A   Clear
6:56 PM 33.1 °F 28.7 °F 10.0 °F 38% 30.40 in 10.0 mi East 4.6 mph - N/A   Clear
7:56 PM 33.1 °F 26.9 °F 7.0 °F 34% 30.40 in 10.0 mi East 6.9 mph - N/A   Clear
8:56 PM 32.0 °F 25.6 °F 9.0 °F 38% 30.38 in 10.0 mi East 6.9 mph - N/A   Clear
9:56 PM 30.9 °F 25.2 °F 9.0 °F 40% 30.37 in 10.0 mi East 5.8 mph - N/A   Clear
10:56 PM 30.9 °F 24.3 °F 10.9 °F 43% 30.35 in 10.0 mi East 6.9 mph - N/A   Clear
11:56 PM 30.0 °F 24.1 °F 10.0 °F 43% 30.34 in 10.0 mi East 5.8 mph - N/A   Clear